Location: East Guldeford
(50.9500°N, 0.7500°E)
Time: 08:46:34
(UTC+00:00)

BREEZE-M DEB (TANK) - Pass Details

Date: 12 May 2021
Orbit: 277 x 16788 km, 49.5° (Epoch: 16 June)

Event Time Altitude Azimuth Distance (km) Brightness Sun altitude
Rises 21:27:46 0° 276° (W) 2,118 6.0 -13.7°
Reaches altitude 10° 21:29:39 10° 268° (W) 1,119 4.4 -13.9°
Maximum altitude 21:31:34 42° 193° (SSW) 428 1.5 -14.0°
Enters shadow 21:31:49 40° 169° (S) 456 1.5 -14.0°
